Caneli — 2BHE7 — position and weather

sailwx.info

Track history (hours):
 
Tides and Currents Weather Stations Pressure Air Temp Water Temp Dewpoint Dewpoint Depression Visibility Wind Speed Wind Dir Waves Ship Positions

Caneli

Last reported at 2014-Sep-21 01:33 UTC. Time now 2014-Nov-01 01:54 UTC.
Position N 40°07' W 072°48'.
Warning: this ship's position is 41 days out of date.

Length 43 m; draft 3 m.

Type: Pleasure craft. MMSI: 235065392.

Date/timePositionNaut miles runAvg speedWind from/ knotsBaromVisibWave heightAir tempDewpointWater temp
2014-Sep-21 01:33N 40°07' W 072°48'8 7.9
2014-Sep-21 00:33N 40°13' W 072°42'8 8.0
2014-Sep-20 23:34N 40°19' W 072°35'8 7.9
2014-Sep-20 22:33N 40°25' W 072°28'8 7.9
2014-Sep-20 21:34N 40°31' W 072°22'8 7.9
2014-Sep-20 20:33N 40°38' W 072°15'8 7.7
2014-Sep-20 19:34N 40°44' W 072°09'8 7.8
2014-Sep-20 18:33N 40°50' W 072°02'8 8.2
2014-Sep-20 17:33N 40°56' W 071°56'9 8.9
2014-Sep-20 16:34N 41°03' W 071°48'7 6.9
2014-Sep-20 15:33N 41°06' W 071°56'4 3.5
2014-Sep-20 14:31N 41°03' W 071°58'0 0.0
2014-Sep-20 13:31N 41°03' W 071°58'0 0.0
2014-Sep-20 12:32N 41°03' W 071°58'0 0.0
2014-Sep-20 11:32N 41°03' W 071°58'0 0.0
2014-Sep-20 10:32N 41°03' W 071°58'0 0.0
2014-Sep-20 09:32N 41°03' W 071°58'0 0.0
2014-Sep-20 08:32N 41°03' W 071°58'0 0.0
2014-Sep-20 07:32N 41°03' W 071°58'0 0.0
2014-Sep-20 06:32N 41°03' W 071°58'0 0.0
2014-Sep-20 05:32N 41°03' W 071°58'0 0.0
2014-Sep-20 04:32N 41°03' W 071°58'0 0.0
2014-Sep-20 03:32N 41°03' W 071°58'0 0.0
2014-Sep-20 02:32N 41°03' W 071°58'0 0.0
2014-Sep-20 01:32N 41°03' W 071°58'0 0.0
2014-Sep-20 00:32N 41°03' W 071°58'0 0.0
2014-Sep-19 23:32N 41°03' W 071°58'0 0.0
2014-Sep-19 22:32N 41°03' W 071°58'0 0.0
2014-Sep-19 21:32N 41°03' W 071°58'0 0.0
2014-Sep-19 20:32N 41°03' W 071°58'0 0.0
2014-Sep-19 19:32N 41°03' W 071°58'0 0.0
2014-Sep-19 18:32N 41°03' W 071°58'0 0.0
2014-Sep-19 17:32N 41°03' W 071°58'0 0.0
2014-Sep-19 16:32N 41°03' W 071°58'0 0.0
2014-Sep-19 15:32N 41°03' W 071°58'0 0.0
2014-Sep-19 14:32N 41°03' W 071°58'0 0.0
2014-Sep-19 13:32N 41°03' W 071°58'0 0.0
2014-Sep-19 12:32N 41°03' W 071°58'0 0.0
2014-Sep-19 11:32N 41°03' W 071°58'0 0.0
2014-Sep-19 10:32N 41°03' W 071°58'0 0.0
2014-Sep-19 09:32N 41°03' W 071°58'0 0.0
2014-Sep-19 08:32N 41°03' W 071°58'0 0.0
2014-Sep-19 07:32N 41°03' W 071°58'0 0.0
2014-Sep-19 06:32N 41°03' W 071°58'0 0.0
2014-Sep-19 05:32N 41°03' W 071°58'0 0.0
2014-Sep-19 04:32N 41°03' W 071°58'0 0.0
2014-Sep-19 03:32N 41°03' W 071°58'0 0.1
2014-Sep-19 02:32N 41°03' W 071°58'0 0.0
2014-Sep-19 01:32N 41°03' W 071°58'0 0.0
2014-Sep-19 00:32N 41°03' W 071°58'0 0.0
2014-Sep-18 23:32N 41°03' W 071°58'0 0.0
2014-Sep-18 22:32N 41°03' W 071°58'0 0.0
2014-Sep-18 21:32N 41°03' W 071°58'2 2.1
2014-Sep-18 20:33N 41°05' W 071°58'10 9.7
2014-Sep-18 19:33N 41°11' W 071°47'9 9.2
2014-Sep-18 18:33N 41°15' W 071°37'9 8.9
2014-Sep-18 17:33N 41°17' W 071°25'9 9.3
2014-Sep-18 16:33N 41°19' W 071°13'10 9.4
2014-Sep-18 15:32N 41°21' W 071°01'10 9.7
2014-Sep-18 14:33N 41°25' W 070°49'1010.1
2014-Sep-18 13:32N 41°30' W 070°37'9 9.0
2014-Sep-18 12:33N 41°28' W 070°25'9 8.7
2014-Sep-18 11:33N 41°27' W 070°14'9 8.6
2014-Sep-18 10:32N 41°26' W 070°02'124 7.3
2014-Sep-17 17:32N 43°30' W 070°07'8 7.8
2014-Sep-17 16:34N 43°37' W 070°12'  
2014-Sep-13 17:07N 43°39' W 070°15'3 4.6
2014-Sep-13 16:32N 43°38' W 070°12'8 7.7
2014-Sep-13 15:33N 43°42' W 070°04'3 2.5
2014-Sep-13 14:31N 43°45' W 070°02'0 0.0
2014-Sep-13 13:31N 43°45' W 070°02'0 0.0
2014-Sep-13 12:31N 43°44' W 070°02'0 0.0
2014-Sep-13 11:31N 43°44' W 070°02'0 0.0
2014-Sep-13 10:31N 43°44' W 070°02'0 0.0
2014-Sep-13 09:31N 43°44' W 070°02'0 0.0
2014-Sep-13 08:31N 43°44' W 070°02'0 0.0
2014-Sep-13 07:31N 43°44' W 070°02'0 0.0
2014-Sep-13 06:31N 43°44' W 070°02'0 0.0
2014-Sep-13 05:31N 43°44' W 070°02'0 0.0
2014-Sep-13 04:28N 43°44' W 070°02'0 0.0
2014-Sep-13 03:31N 43°44' W 070°02'0 0.0
2014-Sep-13 02:31N 43°44' W 070°02'0 0.0
2014-Sep-13 01:31N 43°44' W 070°02'0 0.0
2014-Sep-13 00:31N 43°44' W 070°02'0 0.0
2014-Sep-12 23:31N 43°44' W 070°02'0 0.0
2014-Sep-12 22:31N 43°44' W 070°02'0 0.0
2014-Sep-12 21:31N 43°44' W 070°02'0 0.0
2014-Sep-12 20:31N 43°44' W 070°02'0 0.0
2014-Sep-12 19:31N 43°44' W 070°02'0 0.0
2014-Sep-12 18:34N 43°45' W 070°02'4 4.2
2014-Sep-12 17:33N 43°41' W 069°59'  
Track history (hours):
 
Tides and Currents Weather Stations Pressure Air Temp Water Temp Dewpoint Dewpoint Depression Visibility Wind Speed Wind Dir Waves Ship Positions

Caneli

Last reported at 2014-Sep-21 01:33 UTC. Time now 2014-Nov-01 01:54 UTC.
Position N 40°07' W 072°48'.
Warning: this ship's position is 41 days out of date.

Length 43 m; draft 3 m.

Type: Pleasure craft. MMSI: 235065392.

Date/timePositionNaut miles runAvg speedWind from/ knotsBaromVisibWave heightAir tempDewpointWater temp
2014-Sep-21 01:33N 40°07' W 072°48'8 7.9
2014-Sep-21 00:33N 40°13' W 072°42'8 8.0
2014-Sep-20 23:34N 40°19' W 072°35'8 7.9
2014-Sep-20 22:33N 40°25' W 072°28'8 7.9
2014-Sep-20 21:34N 40°31' W 072°22'8 7.9
2014-Sep-20 20:33N 40°38' W 072°15'8 7.7
2014-Sep-20 19:34N 40°44' W 072°09'8 7.8
2014-Sep-20 18:33N 40°50' W 072°02'8 8.2
2014-Sep-20 17:33N 40°56' W 071°56'9 8.9
2014-Sep-20 16:34N 41°03' W 071°48'7 6.9
2014-Sep-20 15:33N 41°06' W 071°56'4 3.5
2014-Sep-20 14:31N 41°03' W 071°58'0 0.0
2014-Sep-20 13:31N 41°03' W 071°58'0 0.0
2014-Sep-20 12:32N 41°03' W 071°58'0 0.0
2014-Sep-20 11:32N 41°03' W 071°58'0 0.0
2014-Sep-20 10:32N 41°03' W 071°58'0 0.0
2014-Sep-20 09:32N 41°03' W 071°58'0 0.0
2014-Sep-20 08:32N 41°03' W 071°58'0 0.0
2014-Sep-20 07:32N 41°03' W 071°58'0 0.0
2014-Sep-20 06:32N 41°03' W 071°58'0 0.0
2014-Sep-20 05:32N 41°03' W 071°58'0 0.0
2014-Sep-20 04:32N 41°03' W 071°58'0 0.0
2014-Sep-20 03:32N 41°03' W 071°58'0 0.0
2014-Sep-20 02:32N 41°03' W 071°58'0 0.0
2014-Sep-20 01:32N 41°03' W 071°58'0 0.0
2014-Sep-20 00:32N 41°03' W 071°58'0 0.0
2014-Sep-19 23:32N 41°03' W 071°58'0 0.0
2014-Sep-19 22:32N 41°03' W 071°58'0 0.0
2014-Sep-19 21:32N 41°03' W 071°58'0 0.0
2014-Sep-19 20:32N 41°03' W 071°58'0 0.0
2014-Sep-19 19:32N 41°03' W 071°58'0 0.0
2014-Sep-19 18:32N 41°03' W 071°58'0 0.0
2014-Sep-19 17:32N 41°03' W 071°58'0 0.0
2014-Sep-19 16:32N 41°03' W 071°58'0 0.0
2014-Sep-19 15:32N 41°03' W 071°58'0 0.0
2014-Sep-19 14:32N 41°03' W 071°58'0 0.0
2014-Sep-19 13:32N 41°03' W 071°58'0 0.0
2014-Sep-19 12:32N 41°03' W 071°58'0 0.0
2014-Sep-19 11:32N 41°03' W 071°58'0 0.0
2014-Sep-19 10:32N 41°03' W 071°58'0 0.0
2014-Sep-19 09:32N 41°03' W 071°58'0 0.0
2014-Sep-19 08:32N 41°03' W 071°58'0 0.0
2014-Sep-19 07:32N 41°03' W 071°58'0 0.0
2014-Sep-19 06:32N 41°03' W 071°58'0 0.0
2014-Sep-19 05:32N 41°03' W 071°58'0 0.0
2014-Sep-19 04:32N 41°03' W 071°58'0 0.0
2014-Sep-19 03:32N 41°03' W 071°58'0 0.1
2014-Sep-19 02:32N 41°03' W 071°58'0 0.0
2014-Sep-19 01:32N 41°03' W 071°58'0 0.0
2014-Sep-19 00:32N 41°03' W 071°58'0 0.0
2014-Sep-18 23:32N 41°03' W 071°58'0 0.0
2014-Sep-18 22:32N 41°03' W 071°58'0 0.0
2014-Sep-18 21:32N 41°03' W 071°58'2 2.1
2014-Sep-18 20:33N 41°05' W 071°58'10 9.7
2014-Sep-18 19:33N 41°11' W 071°47'9 9.2
2014-Sep-18 18:33N 41°15' W 071°37'9 8.9
2014-Sep-18 17:33N 41°17' W 071°25'9 9.3
2014-Sep-18 16:33N 41°19' W 071°13'10 9.4
2014-Sep-18 15:32N 41°21' W 071°01'10 9.7
2014-Sep-18 14:33N 41°25' W 070°49'1010.1
2014-Sep-18 13:32N 41°30' W 070°37'9 9.0
2014-Sep-18 12:33N 41°28' W 070°25'9 8.7
2014-Sep-18 11:33N 41°27' W 070°14'9 8.6
2014-Sep-18 10:32N 41°26' W 070°02'124 7.3
2014-Sep-17 17:32N 43°30' W 070°07'8 7.8
2014-Sep-17 16:34N 43°37' W 070°12'  
2014-Sep-13 17:07N 43°39' W 070°15'3 4.6
2014-Sep-13 16:32N 43°38' W 070°12'8 7.7
2014-Sep-13 15:33N 43°42' W 070°04'3 2.5
2014-Sep-13 14:31N 43°45' W 070°02'0 0.0
2014-Sep-13 13:31N 43°45' W 070°02'0 0.0
2014-Sep-13 12:31N 43°44' W 070°02'0 0.0
2014-Sep-13 11:31N 43°44' W 070°02'0 0.0
2014-Sep-13 10:31N 43°44' W 070°02'0 0.0
2014-Sep-13 09:31N 43°44' W 070°02'0 0.0
2014-Sep-13 08:31N 43°44' W 070°02'0 0.0
2014-Sep-13 07:31N 43°44' W 070°02'0 0.0
2014-Sep-13 06:31N 43°44' W 070°02'0 0.0
2014-Sep-13 05:31N 43°44' W 070°02'0 0.0
2014-Sep-13 04:28N 43°44' W 070°02'0 0.0
2014-Sep-13 03:31N 43°44' W 070°02'0 0.0
2014-Sep-13 02:31N 43°44' W 070°02'0 0.0
2014-Sep-13 01:31N 43°44' W 070°02'0 0.0
2014-Sep-13 00:31N 43°44' W 070°02'0 0.0
2014-Sep-12 23:31N 43°44' W 070°02'0 0.0
2014-Sep-12 22:31N 43°44' W 070°02'0 0.0
2014-Sep-12 21:31N 43°44' W 070°02'0 0.0
2014-Sep-12 20:31N 43°44' W 070°02'0 0.0
2014-Sep-12 19:31N 43°44' W 070°02'0 0.0
2014-Sep-12 18:34N 43°45' W 070°02'4 4.2
2014-Sep-12 17:33N 43°41' W 069°59'  

Dump ship's entire track history